| time (UTC) | temp F | wind direction | speed MPH | gust MPH | rain 1hr in | rain 24hr in | rain mn in | humidity % | barometer mb |
| 20260504080703 | 66 | 161 | 3.0 | 10.0 | 0.00 | 0.00 | 0.00 | 52 | 1011.1 |
| 20260504080203 | 66 | 162 | 2.0 | 9.0 | 0.00 | 0.00 | 0.00 | 52 | 1011.3 |
| 20260504070203 | 68 | 157 | 2.0 | 10.0 | 0.00 | 0.00 | 0.00 | 48 | 1011.7 |
| 20260504050704 | 69 | 179 | 2.0 | 7.0 | 0.00 | 0.00 | 0.00 | 47 | 1012.6 |
| 20260504050204 | 69 | 159 | 3.0 | 13.0 | 0.00 | 0.00 | 0.00 | 48 | 1012.7 |
| 20260504043703 | 69 | 180 | 5.0 | 9.0 | 0.00 | 0.00 | 0.00 | 47 | 1012.8 |
| 20260504043203 | 69 | 186 | 4.0 | 13.0 | 0.00 | 0.00 | 0.00 | 47 | 1012.8 |
| 20260504040703 | 70 | 161 | 3.0 | 9.0 | 0.00 | 0.00 | 0.00 | 45 | 1013.1 |
| 20260504040203 | 70 | 180 | 3.0 | 12.0 | 0.00 | 0.00 | 0.00 | 45 | 1013.1 |
| 20260504033703 | 71 | 168 | 6.0 | 12.0 | 0.00 | 0.00 | 0.00 | 43 | 1013.0 |
| 20260504033203 | 71 | 183 | 4.0 | 15.0 | 0.00 | 0.00 | 0.00 | 43 | 1013.0 |
| 20260504030703 | 72 | 168 | 4.0 | 8.0 | 0.00 | 0.00 | 0.00 | 42 | 1013.0 |
| 20260504030204 | 72 | 159 | 3.0 | 17.0 | 0.00 | 0.00 | 0.00 | 42 | 1013.0 |
| 20260504023703 | 73 | 191 | 3.0 | 9.0 | 0.00 | 0.00 | 0.00 | 40 | 1012.8 |
| 20260504023204 | 73 | 184 | 3.0 | 17.0 | 0.00 | 0.00 | 0.00 | 40 | 1012.8 |
| 20260504013204 | 77 | 193 | 2.0 | 9.0 | 0.00 | 0.00 | 0.00 | 36 | 1012.4 |
| 20260504010703 | 78 | 189 | 2.0 | 6.0 | 0.00 | 0.00 | 0.00 | 33 | 1012.3 |
| 20260504010204 | 79 | 219 | 2.0 | 10.0 | 0.00 | 0.00 | 0.00 | 33 | 1012.3 |
| 20260504003704 | 80 | 193 | 3.0 | 8.0 | 0.00 | 0.00 | 0.00 | 31 | 1012.4 |
| 20260504003204 | 80 | 178 | 2.0 | 13.0 | 0.00 | 0.00 | 0.00 | 31 | 1012.4 |
| 20260504000704 | 82 | 203 | 3.0 | 10.0 | 0.00 | 0.00 | 0.00 | 30 | 1012.7 |
| 20260504000204 | 82 | 221 | 3.0 | 16.0 | 0.00 | 0.00 | 0.00 | 30 | 1012.7 |
| 20260503233703 | 83 | 228 | 5.0 | 15.0 | 0.00 | 0.00 | 0.00 | 28 | 1012.8 |
| 20260503233204 | 83 | 220 | 5.0 | 13.0 | 0.00 | 0.00 | 0.00 | 29 | 1012.8 |
| 20260503230204 | 84 | 174 | 5.0 | 17.0 | 0.00 | 0.00 | 0.00 | 28 | 1012.8 |
| 20260503223704 | 84 | 229 | 3.0 | 8.0 | 0.00 | 0.00 | 0.00 | 27 | 1012.9 |
| 20260503220704 | 85 | 190 | 3.0 | 10.0 | 0.00 | 0.00 | 0.00 | 27 | 1013.4 |
| 20260503220205 | 85 | 199 | 6.0 | 12.0 | 0.00 | 0.00 | 0.00 | 25 | 1013.4 |
| 20260503213703 | 85 | 224 | 4.0 | 9.0 | 0.00 | 0.00 | 0.00 | 25 | 1013.8 |
| 20260503213203 | 85 | 197 | 6.0 | 16.0 | 0.00 | 0.00 | 0.00 | 25 | 1013.8 |
| 20260503203703 | 86 | 200 | 3.0 | 10.0 | 0.00 | 0.00 | 0.00 | 27 | 1014.5 |
| 20260503203204 | 85 | 202 | 4.0 | 13.0 | 0.00 | 0.00 | 0.00 | 25 | 1014.7 |
| 20260503200704 | 87 | 247 | 3.0 | 12.0 | 0.00 | 0.00 | 0.00 | 26 | 1015.2 |
| 20260503200203 | 86 | 224 | 4.0 | 17.0 | 0.00 | 0.00 | 0.00 | 24 | 1015.2 |
| 20260503193704 | 86 | 193 | 4.0 | 8.0 | 0.00 | 0.00 | 0.00 | 24 | 1015.3 |
| 20260503193204 | 86 | 217 | 5.0 | 14.0 | 0.00 | 0.00 | 0.00 | 27 | 1015.4 |
| 20260503190704 | 85 | 173 | 3.0 | 7.0 | 0.00 | 0.00 | 0.00 | 28 | 1016.0 |
| 20260503190204 | 85 | 152 | 2.0 | 20.0 | 0.00 | 0.00 | 0.00 | 30 | 1016.0 |
| 20260503183705 | 85 | 217 | 3.0 | 7.0 | 0.00 | 0.00 | 0.00 | 26 | 1016.4 |
| 20260503183205 | 84 | 207 | 4.0 | 14.0 | 0.00 | 0.00 | 0.00 | 29 | 1016.5 |
| 20260503180705 | 83 | 219 | 4.0 | 15.0 | 0.00 | 0.00 | 0.00 | 34 | 1017.1 |
| 20260503173703 | 81 | 175 | 4.0 | 7.0 | 0.00 | 0.00 | 0.00 | 41 | 1017.8 |
| 20260503170702 | 79 | 231 | 2.0 | 10.0 | 0.00 | 0.00 | 0.00 | 43 | 1018.2 |
| 20260503160202 | 74 | 215 | 2.0 | 7.0 | 0.00 | 0.00 | 0.00 | 53 | 1018.7 |
| 20260503150702 | 68 | 169 | 2.0 | 7.0 | 0.00 | 0.00 | 0.00 | 62 | 1018.9 |
| 20260503150202 | 67 | 196 | 2.0 | 9.0 | 0.00 | 0.00 | 0.00 | 61 | 1019.0 |
| 20260503140202 | 62 | 165 | 4.0 | 12.0 | 0.00 | 0.00 | 0.00 | 66 | 1019.2 |
| 20260503130702 | 57 | 159 | 3.0 | 7.0 | 0.00 | 0.00 | 0.00 | 71 | 1019.3 |
| 20260503130203 | 57 | 160 | 5.0 | 9.0 | 0.00 | 0.00 | 0.00 | 71 | 1019.2 |
| 20260503120203 | 53 | 165 | 4.0 | 9.0 | 0.00 | 0.00 | 0.00 | 70 | 1019.1 |
| 20260503110703 | 53 | 142 | 2.0 | 5.0 | 0.00 | 0.00 | 0.00 | 67 | 1019.1 |
| 20260503110202 | 53 | 171 | 3.0 | 7.0 | 0.00 | 0.00 | 0.00 | 67 | 1019.1 |